When you browse on this site, cookies collect data to enhance your experience and personalize the content and advertising you see.
Visit our Privacy Policy to learn more. By continuing to use the site, you agree to this use of cookies and data.
  • In United Kingdom
  • List of Countries
  • For 7 days
  • Water Temperature
  • Weather Map
  • Weather Widgets
  • user-avatar
    Login

    Hourly Weather Gniewoszow

    Today, 22 October, Tuesday

    Time Temperature Precipitation Wind Pressure Humidity
    00:00 +15°C° 0 mm 1 mps 755 mmHg 77%
    01:00 +15°C° 0 mm 1 mps 755 mmHg 77%
    02:00 +15°C° 0 mm 1 mps 755 mmHg 79%
    03:00 +14°C° 0 mm 1 mps 755 mmHg 80%
    04:00 +14°C° 0 mm 1 mps 755 mmHg 82%
    05:00 +14°C° 0 mm 1 mps 755 mmHg 82%
    06:00 +14°C° 0 mm 1 mps 755 mmHg 82%
    07:00 +14°C° 0 mm 1 mps 756 mmHg 83%
    08:00 +15°C° 0 mm 1 mps 756 mmHg 76%
    09:00 +18°C° 0 mm 1 mps 756 mmHg 70%
    10:00 +19°C° 0 mm 2 mps 756 mmHg 63%
    11:00 +21°C° 0 mm 1 mps 756 mmHg 60%
    12:00 +22°C° 0 mm 1 mps 755 mmHg 56%
    13:00 +23°C° 0 mm 1 mps 755 mmHg 52%
    14:00 +22°C° 0 mm 1 mps 755 mmHg 57%
    15:00 +21°C° 0 mm 1 mps 755 mmHg 61%
    16:00 +20°C° 0 mm 1 mps 755 mmHg 65%
    17:00 +19°C° 0 mm 1 mps 755 mmHg 69%
    18:00 +18°C° 0 mm 1 mps 755 mmHg 72%
    19:00 +18°C° 0 mm 1 mps 755 mmHg 76%
    20:00 +16°C° 0 mm 1 mps 755 mmHg 78%
    21:00 +16°C° 0 mm 1 mps 755 mmHg 81%
    22:00 +15°C° 0 mm 1 mps 755 mmHg 83%
    23:00 +15°C° 0 mm 1 mps 755 mmHg 86%

    Tomorrow, 23 October, Wednesday

    Time Temperature Precipitation Wind Pressure Humidity
    00:00 +15°C° 0 mm 1 mps 755 mmHg 88%
    01:00 +14°C° 0 mm 1 mps 755 mmHg 90%
    02:00 +14°C° 0 mm 2 mps 755 mmHg 92%
    03:00 +14°C° 0 mm 2 mps 755 mmHg 93%
    04:00 +14°C° 0 mm 2 mps 755 mmHg 94%
    05:00 +13°C° 0 mm 2 mps 755 mmHg 95%
    06:00 +13°C° 0 mm 2 mps 755 mmHg 95%
    07:00 +13°C° 0 mm 2 mps 755 mmHg 96%
    08:00 +15°C° 0 mm 1 mps 755 mmHg 88%
    09:00 +16°C° 0 mm 1 mps 755 mmHg 81%
    10:00 +19°C° 0 mm 1 mps 755 mmHg 73%
    11:00 +19°C° 0 mm 1 mps 755 mmHg 69%
    12:00 +20°C° 0 mm 1 mps 755 mmHg 65%
    13:00 +21°C° 0 mm 1 mps 755 mmHg 61%
    14:00 +20°C° 0 mm 1 mps 755 mmHg 64%
    15:00 +19°C° 0 mm 1 mps 754 mmHg 67%
    16:00 +19°C° 0 mm 1 mps 754 mmHg 70%
    17:00 +18°C° 0 mm 1 mps 754 mmHg 73%
    18:00 +16°C° 0 mm 2 mps 754 mmHg 76%
    19:00 +15°C° 0 mm 2 mps 754 mmHg 79%
    20:00 +15°C° 0 mm 2 mps 754 mmHg 81%
    21:00 +14°C° 0 mm 2 mps 754 mmHg 83%
    22:00 +13°C° 0 mm 3 mps 754 mmHg 86%
    23:00 +13°C° 0 mm 3 mps 754 mmHg 88%

    Day after tomorrow, 24 October, Thursday

    Time Temperature Precipitation Wind Pressure Humidity
    00:00 +12°C° 0 mm 3 mps 754 mmHg 89%
    01:00 +12°C° 0 mm 3 mps 754 mmHg 91%
    02:00 +12°C° 0 mm 3 mps 753 mmHg 92%
    03:00 +12°C° 0 mm 3 mps 753 mmHg 93%
    04:00 +12°C° 0 mm 3 mps 752 mmHg 94%
    05:00 +12°C° 0 mm 3 mps 752 mmHg 94%
    06:00 +12°C° 0 mm 4 mps 752 mmHg 94%
    07:00 +12°C° 0 mm 4 mps 752 mmHg 94%
    08:00 +14°C° 0 mm 4 mps 752 mmHg 85%
    09:00 +16°C° 0 mm 5 mps 751 mmHg 77%
    10:00 +19°C° 0 mm 5 mps 751 mmHg 69%
    11:00 +20°C° 0 mm 5 mps 751 mmHg 64%
    12:00 +21°C° 0 mm 5 mps 751 mmHg 58%
    13:00 +22°C° 0 mm 5 mps 750 mmHg 52%
    14:00 +21°C° 0 mm 4 mps 750 mmHg 56%
    15:00 +20°C° 0 mm 4 mps 750 mmHg 59%
    16:00 +19°C° 0 mm 3 mps 749 mmHg 63%
    17:00 +18°C° 0 mm 4 mps 749 mmHg 67%
    18:00 +18°C° 0 mm 4 mps 750 mmHg 71%
    19:00 +17°C° 0 mm 4 mps 750 mmHg 75%
    20:00 +16°C° 0 mm 3 mps 750 mmHg 76%
    21:00 +14°C° 0 mm 3 mps 750 mmHg 77%
    22:00 +14°C° 0 mm 3 mps 750 mmHg 79%
    23:00 +14°C° 0 mm 3 mps 750 mmHg 79%

    25 October, Friday

    Time Temperature Precipitation Wind Pressure Humidity
    00:00 +14°C° 0 mm 2 mps 750 mmHg 80%
    01:00 +14°C° 0 mm 2 mps 750 mmHg 80%
    02:00 +13°C° 0 mm 2 mps 750 mmHg 80%
    03:00 +13°C° 0 mm 2 mps 750 mmHg 80%
    04:00 +13°C° 0 mm 2 mps 751 mmHg 80%
    05:00 +13°C° 0 mm 2 mps 751 mmHg 78%
    06:00 +13°C° 0 mm 2 mps 751 mmHg 76%
    07:00 +13°C° 0 mm 2 mps 752 mmHg 74%
    08:00 +14°C° 0 mm 3 mps 752 mmHg 68%
    09:00 +17°C° 0 mm 3 mps 752 mmHg 62%
    10:00 +19°C° 0 mm 4 mps 753 mmHg 55%
    11:00 +20°C° 0 mm 4 mps 753 mmHg 55%
    12:00 +20°C° 0 mm 4 mps 753 mmHg 55%
    13:00 +21°C° 0 mm 4 mps 753 mmHg 55%
    14:00 +20°C° 0 mm 3 mps 753 mmHg 61%
    15:00 +19°C° 0 mm 3 mps 753 mmHg 67%
    16:00 +18°C° 0 mm 2 mps 753 mmHg 73%
    17:00 +17°C° 0 mm 2 mps 753 mmHg 77%
    18:00 +16°C° 0 mm 2 mps 754 mmHg 82%
    19:00 +15°C° 0 mm 2 mps 754 mmHg 86%
    20:00 +15°C° 0 mm 1 mps 754 mmHg 87%
    21:00 +14°C° 0 mm 1 mps 754 mmHg 89%
    22:00 +14°C° 0 mm 1 mps 754 mmHg 90%
    23:00 +13°C° 0 mm 1 mps 754 mmHg 91%

    26 October, Saturday

    Time Temperature Precipitation Wind Pressure Humidity
    00:00 +12°C° 0 mm 0 mps 754 mmHg 91%
    01:00 +12°C° 0 mm 0 mps 754 mmHg 91%
    02:00 +13°C° 0 mm 1 mps 754 mmHg 91%
    03:00 +13°C° 0 mm 1 mps 753 mmHg 92%
    04:00 +12°C° 0 mm 1 mps 753 mmHg 92%
    05:00 +12°C° 0 mm 2 mps 753 mmHg 92%
    06:00 +12°C° 0 mm 2 mps 753 mmHg 93%
    07:00 +12°C° 0 mm 2 mps 753 mmHg 93%
    08:00 +13°C° 0 mm 3 mps 753 mmHg 86%
    09:00 +16°C° 0 mm 3 mps 752 mmHg 79%
    10:00 +17°C° 0 mm 4 mps 752 mmHg 72%
    11:00 +18°C° 0 mm 4 mps 752 mmHg 66%
    12:00 +20°C° 0 mm 4 mps 752 mmHg 60%
    13:00 +21°C° 0 mm 4 mps 751 mmHg 54%
    14:00 +20°C° 0 mm 4 mps 751 mmHg 58%
    15:00 +19°C° 0 mm 4 mps 750 mmHg 62%
    16:00 +18°C° 0 mm 3 mps 750 mmHg 66%
    17:00 +17°C° 0 mm 3 mps 750 mmHg 70%
    18:00 +16°C° 0 mm 3 mps 750 mmHg 74%
    19:00 +14°C° 0 mm 3 mps 750 mmHg 79%
    20:00 +14°C° 0 mm 3 mps 751 mmHg 81%
    21:00 +14°C° 0 mm 3 mps 751 mmHg 83%
    22:00 +13°C° 0 mm 3 mps 751 mmHg 84%
    23:00 +13°C° 0 mm 3 mps 750 mmHg 85%

    27 October, Sunday

    Time Temperature Precipitation Wind Pressure Humidity
    00:00 +13°C° 0 mm 3 mps 750 mmHg 86%
    01:00 +13°C° 0 mm 3 mps 750 mmHg 88%
    02:00 +12°C° 0 mm 3 mps 750 mmHg 87%
    03:00 +12°C° 0 mm 4 mps 749 mmHg 86%
    04:00 +12°C° 0 mm 4 mps 749 mmHg 85%
    05:00 +12°C° 0 mm 5 mps 750 mmHg 83%
    06:00 +10°C° 0 mm 5 mps 750 mmHg 82%
    07:00 +10°C° 0 mm 6 mps 751 mmHg 80%
    08:00 +10°C° 0.1 mm 5 mps 751 mmHg 79%
    09:00 +9°C° 0.1 mm 5 mps 752 mmHg 77%
    10:00 +9°C° 0.1 mm 5 mps 752 mmHg 76%
    11:00 +9°C° 0 mm 5 mps 753 mmHg 67%
    12:00 +9°C° 0 mm 5 mps 753 mmHg 58%
    13:00 +9°C° 0 mm 6 mps 753 mmHg 49%
    14:00 +9°C° 0 mm 5 mps 753 mmHg 51%
    15:00 +8°C° 0 mm 4 mps 753 mmHg 53%
    16:00 +8°C° 0 mm 4 mps 753 mmHg 54%
    17:00 +7°C° 0 mm 4 mps 754 mmHg 56%
    18:00 +7°C° 0 mm 4 mps 754 mmHg 57%
    19:00 +6°C° 0 mm 4 mps 754 mmHg 58%
    20:00 +6°C° 0 mm 4 mps 754 mmHg 62%
    21:00 +6°C° 0 mm 4 mps 754 mmHg 65%
    22:00 +5°C° 0 mm 4 mps 754 mmHg 68%
    23:00 +5°C° 0 mm 4 mps 754 mmHg 70%
    Show more